EDT,Max TemperatureF,Mean TemperatureF,Min TemperatureF,Max Dew PointF,MeanDew PointF,Min DewpointF,Max Humidity, Mean Humidity, Min Humidity, Max Sea Level PressureIn, Mean Sea Level PressureIn, Min Sea Level PressureIn, Max VisibilityMiles, Mean VisibilityMiles, Min VisibilityMiles, Max Wind SpeedMPH, Mean Wind SpeedMPH, Max Gust SpeedMPH,PrecipitationIn, CloudCover, Events, WindDirDegrees
2014-3-1,35,24,12,32,19,5,92,71,56,30.46,30.33,30.14,10,10,8,12,4,17,0.00,2,,204
2014-3-2,39,36,32,32,27,22,92,74,50,30.12,30.04,29.97,10,9,7,9,6,17,0.00,6,,257
2014-3-3,32,26,19,29,17,5,93,73,50,30.27,30.06,29.94,10,5,0,14,6,25,0.15,6,Fog-Snow,345
2014-3-4,30,22,14,18,12,6,81,61,40,30.36,30.30,30.27,10,10,10,10,4,17,0.00,3,,255
2014-3-5,34,30,24,27,21,11,92,73,42,30.42,30.29,30.22,10,7,1,10,4,22,0.02,8,Snow,6
2014-3-6,28,22,17,14,12,9,81,61,51,30.59,30.55,30.43,10,10,9,13,8,24,0.00,5,Snow,19
2014-3-7,37,26,16,36,25,12,96,78,64,30.52,30.25,29.92,10,10,10,13,5,,0.00,2,,57
2014-3-8,48,40,33,36,32,22,96,76,36,29.89,29.79,29.70,10,10,10,10,7,20,0.00,3,,1
2014-3-9,37,32,27,28,20,11,78,58,33,29.95,29.90,29.85,10,10,10,10,6,21,0.00,3,,328
2014-3-10,41,34,28,34,28,13,96,83,47,29.91,29.82,29.71,10,6,1,10,5,18,0.02,6,Snow,227
2014-3-11,55,45,35,37,35,32,96,77,47,29.74,29.62,29.55,10,8,5,13,6,20,0.00,2,,237
2014-3-12,51,42,34,49,43,32,100,90,68,29.74,29.34,28.97,10,5,0,17,7,29,0.28,6,Fog-Rain,184
2014-3-13,46,34,19,48,24,4,100,83,50,29.90,29.26,28.95,10,4,0,17,11,30,0.17,8,Fog-Rain-Snow,316
2014-3-14,37,28,18,32,14,3,82,57,39,30.22,30.10,29.93,10,10,10,18,11,29,0.00,0,,246
2014-3-15,46,42,37,40,34,28,86,76,50,29.99,29.84,29.73,10,9,6,14,9,24,0.00,3,,232
2014-3-16,39,34,30,29,13,4,82,44,31,30.18,30.07,29.91,10,10,10,15,8,25,0.00,1,,292
2014-3-17,28,24,17,16,12,6,81,60,40,30.18,30.11,30.05,10,10,10,15,8,22,0.00,6,,23
2014-3-18,34,25,16,20,17,12,84,64,52,30.37,30.29,30.18,10,10,10,13,5,21,0.00,0,,41
2014-3-19,41,36,30,36,27,20,89,68,57,30.39,30.27,30.01,10,10,9,14,9,20,0.00,1,,101
2014-3-20,48,44,37,45,41,29,100,91,70,29.99,29.70,29.62,10,6,0,18,9,47,0.41,7,Fog-Rain,189
2014-3-21,48,40,34,32,23,21,86,55,40,30.05,29.88,29.79,10,10,10,15,7,25,0.00,2,,274
2014-3-22,52,38,26,41,29,19,83,68,49,30.08,29.92,29.71,10,10,8,17,6,31,0.00,1,,228
2014-3-23,45,38,30,27,20,8,72,52,35,30.02,29.96,29.89,10,10,10,13,6,24,0.00,3,,320
2014-3-24,30,26,21,12,7,3,68,50,33,30.15,30.11,30.03,10,9,2,16,9,28,0.00,4,Snow,339
2014-3-25,37,28,19,23,11,6,71,47,32,30.17,30.10,29.86,10,10,10,13,5,24,0.00,1,,231
2014-3-26,35,31,27,29,23,8,96,76,38,29.94,29.55,29.36,10,3,0,25,19,51,0.58,7,Fog-Rain-Snow,358
2014-3-27,36,29,23,29,13,3,76,51,32,30.35,30.26,29.99,10,10,10,15,12,28,0.00,0,,269
2014-3-28,48,42,36,44,39,29,97,85,71,30.31,30.15,30.05,10,8,2,20,10,33,0.04,5,Rain,220
2014-3-29,52,44,37,45,41,37,100,94,71,30.25,30.13,29.97,10,4,0,15,8,21,0.80,8,Fog-Rain,78
2014-3-30,55,47,39,55,46,38,100,97,93,29.94,29.66,29.54,9,2,0,18,9,31,0.93,8,Fog-Rain,123
2014-3-31,37,36,34,37,34,31,100,92,82,29.93,29.77,29.60,10,5,1,18,12,32,0.21,8,Rain-Snow,6